Location: Belmont Cragin
(41.9317°N, 87.7687°W)
Time: 05:38:21
(UTC+00:00)

Daily predictions for brighter satellites

Satellite Brightness Start Highest point End
(mag) Time Altitude Azimuth Time Altitude Azimuth Time Altitude Azimuth
ASTEX 1 3.5 01:39:08 10° SSE 01:43:58 65° E 01:48:50 10° N
COSMOS 2406 4.3 01:39:22 10° N 01:44:28 31° NE 01:49:31 10° ESE
STARLINK-1210 3.6 01:40:57 10° SW 01:45:03 69° SE 01:49:11 10° ENE
STARLINK-1135 3.7 01:42:15 10° NW 01:46:24 83° SW 01:50:32 10° SE
Cosmos 2056 Rocket 4.0 01:42:12 10° SSE 01:46:50 36° ESE 01:51:29 10° NE
Cosmos 1743 3.1 01:43:40 10° N 01:47:21 45° E 01:51:00 10° SSE
STARLINK-1219 3.6 01:45:54 10° SW 01:50:01 76° SE 01:54:10 10° NE
STARLINK-1141 3.7 01:47:13 10° NW 01:51:22 76° SW 01:55:29 10° SE
Cosmos 2084 Rocket 4.5 01:48:34 10° SW 01:52:43 52° NW 01:56:59 10° NNE
Cosmos 2242 Rocket 3.5 01:49:19 10° S 01:53:42 82° E 01:58:08 10° N
FREGAT/IRIS 4.0 01:51:35 10° SSW 01:54:03 33° W 01:56:31 10° NNW
STARLINK-1211 3.6 01:50:52 10° SW 01:55:00 83° SE 01:59:10 10° NE
STARLINK-1140 3.8 01:52:13 10° WNW 01:56:21 70° SW 02:00:27 10° SE
MOS 1 Rocket 3.1 01:51:58 10° NNE 01:56:26 90° WNW 02:00:43 10° SSW
STARLINK-1245 3.6 01:55:50 10° SW 01:59:59 90° NW 02:04:08 10° NE
STARLINK-1156 3.9 01:57:12 10° WNW 02:01:19 63° SW 02:05:20 10° SE
STARLINK-1233 3.7 02:00:49 10° SW 02:04:57 83° NW 02:09:07 10° NE
STARLINK-1148 4.0 02:02:11 10° WNW 02:06:15 57° SW 02:10:07 11° SE
STARLINK-1204 3.8 02:05:49 10° WSW 02:09:57 77° NW 02:14:06 10° NE
MetOp-A 4.3 02:04:39 10° S 02:10:00 78° WSW 02:15:23 10° NNW
ERBS 2.8 02:07:30 10° SSW 02:10:32 35° SE 02:13:35 10° ENE
STARLINK-1158 4.1 02:07:12 10° WNW 02:11:15 52° SW 02:14:54 12° SSE
Okean 1-7 2.9 02:09:08 10° S 02:13:24 79° E 02:17:41 10° N
STARLINK-1088 4.5 02:09:31 10° NW 02:13:30 43° NNE 02:17:23 10° ESE
STARLINK-1238 3.9 02:10:49 10° WSW 02:14:57 71° NW 02:19:05 10° NE
STARLINK-1162 4.3 02:12:13 10° WNW 02:16:13 47° SW 02:19:42 13° SSE
Cosmos 2082 Rocket 3.7 02:12:34 10° N 02:17:04 23° NE 02:21:33 10° ESE
STARLINK-1239 4.5 02:13:52 10° S 02:17:25 28° SE 02:21:00 10° ENE
Tsikada Rocket 4.0 02:11:54 10° S 02:18:05 84° E 02:24:18 10° N
STARLINK-1115 4.4 02:14:29 10° NW 02:18:29 46° NNE 02:22:10 12° ESE
CZ-2C R/B 4.2 02:15:06 10° N 02:19:31 62° WNW 02:23:59 10° SSW
Cosmos 407 Rocket 3.6 02:14:28 10° NNW 02:19:51 82° ENE 02:24:56 11° SSE
STARLINK-1201 4.1 02:15:49 10° WSW 02:19:56 65° NNW 02:24:03 10° NE
NOSS 2-3 (E) 3.8 02:16:08 10° SW 02:20:20 78° NW 02:25:15 10° NNE
Cosmos 1833 Rocket 3.5 02:16:03 10° N 02:21:13 37° ENE 02:25:34 14° ESE
Cosmos 1420 Rocket 4.5 02:17:16 10° S 02:22:04 39° ESE 02:26:53 10° NE
STARLINK-1240 4.3 02:18:44 10° SSW 02:22:23 31° SE 02:26:03 10° ENE
CZ-2C R/B 3.1 02:17:19 10° N 02:22:54 71° WNW 02:28:28 10° SSW
STARLINK-1076 4.2 02:19:27 10° NW 02:23:29 49° NNE 02:26:56 13° ESE
STARLINK-1206 4.3 02:20:49 10° WSW 02:24:54 60° NW 02:29:01 10° NE
Cosmos 1975 2.8 02:21:15 10° N 02:25:18 68° E 02:28:48 13° SSE
Aureole 1 Rocket 3.4 02:21:22 10° NNW 02:25:40 73° ENE 02:30:36 14° SSE
Abrixas rocket 4.3 02:24:06 10° WNW 02:26:36 24° N 02:29:06 10° NE
STARLINK-1216 4.2 02:23:34 10° SSW 02:27:19 34° SE 02:31:05 10° ENE
STARLINK-1092 4.1 02:24:23 10° NW 02:28:27 53° NNE 02:31:42 15° ESE
STARLINK-1205 4.4 02:25:50 10° WSW 02:29:53 55° NNW 02:33:59 10° NE
Okean 1 4.2 02:26:25 10° SSW 02:30:21 52° W 02:34:20 10° N
Meteor 1-4 Rocket 2.3 02:28:04 10° S 02:31:30 76° E 02:34:57 10° NNE
STARLINK-1237 4.1 02:28:26 10° SSW 02:32:16 37° SE 02:36:07 10° ENE
Cosmos 2221 Rocket 4.0 02:29:37 13° SSE 02:33:22 45° E 02:37:43 10° NNE
Meteor 2-9 Rocket 4.1 02:28:00 10° N 02:33:25 79° E 02:38:11 13° SSE
STARLINK-1080 4.0 02:29:24 10° NW 02:33:29 58° NNE 02:36:32 17° ESE
USA 245 3.6 02:33:13 20° SE 02:35:10 37° ENE 02:37:59 10° N
Cosmos 1515 3.8 02:32:37 10° SSW 02:36:26 76° W 02:40:15 10° N
STARLINK-1087 4.0 02:35:47 10° W 02:37:04 15° SW 02:37:29 15° SSW
ISS -1.5 02:34:30 10° NW 02:37:10 21° NNE 02:39:50 10° ENE
STARLINK-1202 4.0 02:33:21 10° SSW 02:37:14 41° SE 02:41:09 10° ENE
STARLINK-1090 3.9 02:34:20 10° NW 02:38:27 63° NE 02:41:17 19° ESE
SPOT 3 Rocket 4.5 02:34:00 10° S 02:38:55 46° W 02:43:53 10° NNW
Cosmos 1437 Rocket 4.1 02:39:16 19° ESE 02:40:12 21° E 02:43:06 10° NE
NOSS 2-3 (D) 4.4 02:36:18 10° SW 02:40:27 56° NW 02:45:19 10° NNE
ATLAS 3B CENTAUR R/B 4.1 02:31:40 10° SW 02:40:37 22° S 02:43:50 17° SSE
EXPRESS MD2 3.9 02:39:08 10° SSW 02:41:45 30° SE 02:46:05 10° ENE
Resurs 01 Rocket 2.1 02:38:50 10° S 02:43:12 60° W 02:47:38 10° NNW
STARLINK-1089 3.8 02:39:18 10° NW 02:43:25 68° NE 02:46:03 21° ESE
Cosmos 1190 Rocket 4.1 02:38:52 10° NNW 02:44:04 74° WSW 02:48:19 16° S
SPOT 1/Viking Rocket 3.9 02:42:36 19° SE 02:46:00 48° ENE 02:50:58 10° N
Cosmos 1782 Rocket 4.0 02:41:37 10° NNW 02:46:03 61° W 02:50:16 11° S
STARLINK-1246 3.7 02:43:09 10° SSW 02:47:09 50° SE 02:51:10 10° ENE
Cosmos 1140 Rocket 3.6 02:42:16 10° NNW 02:47:29 77° WSW 02:51:30 17° S
Sich 1 Rocket 3.6 02:43:14 10° N 02:47:51 90° E 02:51:20 17° S
STARLINK-1107 3.7 02:44:16 10° NW 02:48:25 74° NE 02:50:51 24° ESE
Cosmos 2278 Rocket 2.1 02:43:08 10° SSW 02:48:48 83° ESE 02:54:31 10° NNE
CREW DRAGON DEMO-1 DEB 3.9 02:46:16 10° WNW 02:49:06 34° SW 02:50:14 25° S
SL-4 R/B 2.9 02:47:44 10° N 02:50:19 23° NE 02:51:20 19° E
STARLINK-1224 3.6 02:48:04 10° SW 02:52:06 55° SE 02:56:10 10° ENE
STARLINK-1066 3.6 02:49:16 10° NW 02:53:26 80° NE 02:55:39 26° ESE
Crew Dragon 2.8 02:55:27 10° NNW 02:56:38 13° NNE 02:57:36 11° NE
STARLINK-1225 3.5 02:52:59 10° SW 02:57:03 61° SE 03:01:09 10° ENE
STARLINK-1081 3.6 02:54:14 10° NW 02:58:24 87° NE 03:00:25 29° SE
Cosmos 1544 4.0 02:55:12 10° NNW 02:58:41 45° W 03:01:22 15° SSW
Cosmos 2142 Rocket 4.4 02:52:52 10° N 02:59:02 78° E 03:03:28 20° SSE
SAR-Lupe-2 3.5 02:57:30 10° NNE 03:01:06 87° WNW 03:03:40 18° SSW
Okean 2 Rocket 3.0 02:56:50 10° N 03:01:16 76° E 03:03:40 26° SSE
SeaSat 1 4.2 02:58:40 10° ENE 03:00:46 14° E 03:00:46 14° E
STARLINK-1230 3.5 02:57:56 10° SW 03:02:02 67° SE 03:06:09 10° ENE
ERS-1 Rocket 3.3 03:00:13 25° SE 03:02:52 50° ENE 03:07:43 10° N
STARLINK-1070 3.5 02:59:12 10° NW 03:03:21 86° SW 03:05:12 32° SE
Terra 2.9 03:01:34 22° ESE 03:03:38 31° ENE 03:07:48 10° N
STARLINK-1243 3.5 03:02:53 10° SW 03:07:00 74° SE 03:11:08 10° NE
STARLINK-1069 3.5 03:04:11 10° NW 03:08:20 79° SW 03:09:59 35° SE
Cosmos 1954 Rocket 4.1 03:04:52 10° NNW 03:10:08 75° WSW 03:13:16 25° S
STARLINK-1236 3.5 03:07:51 10° SW 03:12:00 81° SE 03:16:09 10° NE
Okean 1 Rocket 4.1 03:08:58 10° NNE 03:12:59 31° ENE 03:14:11 27° ESE
STARLINK-1085 3.6 03:09:11 10° NW 03:13:20 72° SW 03:14:47 38° SE
Spot 2 Rocket 3.7 03:11:18 21° S 03:14:38 65° WSW 03:19:40 10° NNW
Cosmos 2151 Rocket 3.6 03:10:19 10° N 03:14:51 74° E 03:16:49 33° SSE
Lacrosse 5 2.4 03:10:06 10° NW 03:15:03 52° NE 03:17:49 25° ESE
Nadezhda 4 Rocket 4.3 03:14:13 27° SSE 03:17:12 47° E 03:23:01 10° NNE
Cosmos 371 Rocket 3.2 03:12:56 13° SSW 03:17:13 88° ESE 03:22:07 10° NNE
Intercosmos 24 3.6 03:14:03 10° N 03:17:40 80° W 03:18:59 37° S
STARLINK-1086 3.7 03:14:10 10° WNW 03:18:17 66° SW 03:19:32 41° SSE
STARLINK-1269 3.6 03:17:46 10° SW 03:21:55 86° NW 03:26:04 10° NE
STARLINK-1095 3.8 03:19:10 10° WNW 03:23:16 60° SW 03:24:20 43° SSE
IGS 5A 4.0 03:23:40 27° SSW 03:25:41 53° W 03:29:47 10° NNW
STARLINK-1200 3.7 03:22:46 10° SW 03:26:55 79° NW 03:31:04 10° NE
Cosmos 2279 Rocket 4.1 03:20:56 10° N 03:27:10 77° W 03:31:05 24° S
STARLINK-1077 3.9 03:24:10 10° WNW 03:28:13 54° SW 03:29:07 44° S
COSMOS 2406 4.1 03:23:30 10° NW 03:28:53 41° WSW 03:32:21 20° SSW
Aureole 2 Rocket 3.4 03:32:21 30° ENE 03:32:21 30° ENE 03:34:16 10° NE
CARTOSAT-1 3.5 03:30:02 42° SSE 03:31:28 88° E 03:35:49 10° NNW
STARLINK-1192 3.8 03:27:46 10° WSW 03:31:55 73° NW 03:36:03 10° NE
Cosmos 1331 Rocket 4.5 03:31:01 36° SE 03:31:58 39° ESE 03:36:44 10° NE
STARLINK-1075 4.0 03:29:10 10° WNW 03:33:10 49° SW 03:33:54 43° S
Meteor 1-23 Rocket 4.2 03:32:25 31° S 03:35:12 70° E 03:40:51 10° NNE
STARLINK-1108 4.4 03:31:27 10° NW 03:35:28 45° NNE 03:37:06 29° E
STARLINK-1244 3.9 03:32:46 10° WSW 03:36:53 67° NW 03:41:01 10° NE
STARLINK-1093 4.1 03:34:11 10° WNW 03:38:08 44° SW 03:38:41 42° SSW
Cosmos 1378 3.9 03:38:54 37° E 03:38:54 37° E 03:42:04 10° NNE
STARLINK-1071 4.3 03:36:25 10° NW 03:40:27 48° NNE 03:41:52 33° E
Cosmos 1461 2.8 03:40:56 56° SSE 03:41:33 65° ESE 03:45:49 10° NE
STARLINK-1138 4.1 03:37:45 10° WSW 03:41:52 61° NNW 03:45:58 10° NE
STARLINK-1074 4.2 03:39:12 10° WNW 03:43:05 40° SW 03:43:27 39° SSW
STARLINK-1110 4.2 03:40:28 10° NW 03:44:32 51° NNE 03:45:46 37° E
STARLINK-1143 4.2 03:42:46 10° WSW 03:46:50 57° NNW 03:50:56 10° NE
Cosmos 2297 3.6 03:44:50 32° S 03:47:32 72° ESE 03:53:14 10° NNE
SPOT 5 3.1 03:46:54 38° S 03:48:54 72° WSW 03:54:12 10° NNW
STARLINK-1124 4.0 03:46:20 10° NW 03:50:25 56° NNE 03:51:25 43° E
STARLINK-1203 4.4 03:47:17 10° WSW 03:51:23 53° NNW 03:55:31 10° NE
STARLINK-1241 4.4 03:47:48 10° WSW 03:51:51 52° NNW 03:55:55 10° NE
Cosmos 1805 3.7 03:48:50 10° N 03:52:39 46° E 03:52:40 46° E
STARLINK-1122 3.9 03:51:18 10° NW 03:55:25 61° NNE 03:56:12 49° E
Cosmos 1092 Rocket 4.0 03:55:33 41° SSE 03:57:34 61° E 04:03:36 10° NNE
STARLINK-1126 3.7 03:56:04 10° NW 04:00:09 65° NE 04:00:41 57° ENE
Cosmos 304 Rocket 3.8 03:58:30 36° SSW 04:00:25 76° WNW 04:05:14 10° NNE
Cosmos 2082 Rocket 2.5 03:55:57 10° NNW 04:01:34 59° WSW 04:03:27 39° SSW
Abrixas rocket 3.9 04:00:08 10° NW 04:02:41 25° N 04:03:05 25° NNE
Cosmos 1842 4.4 04:04:44 33° ENE 04:04:44 33° ENE 04:07:37 10° NNE
Cosmos 1833 Rocket 3.9 04:00:06 10° NW 04:05:03 32° WSW 04:07:16 24° SW
STARLINK-1082 3.6 04:01:14 10° NW 04:05:23 72° NE 04:05:45 66° ENE
Thor Agena Rocket 3.9 04:01:25 10° NNE 04:06:31 46° E 04:07:01 45° ESE
deb Kosmos-1763 4.2 04:05:49 10° NNW 04:09:01 68° N 04:09:01 68° N
STARLINK-1100 3.5 04:06:13 10° NW 04:10:23 78° NE 04:10:33 76° ENE
Cosmos 1378 Rocket 4.4 04:11:31 32° SW 04:13:03 45° WNW 04:17:17 10° N
Cosmos 2369 Rocket 2.9 04:13:14 36° ESE 04:13:14 36° ESE 04:18:19 10° NE
ISS -2.8 04:10:57 10° NW 04:13:28 47° NW 04:13:28 47° NW
Cosmos 1943 Rocket 2.2 04:14:48 51° SE 04:15:17 53° ESE 04:20:43 10° NNE
STARLINK-1083 3.5 04:11:10 10° NW 04:15:18 84° NNE 04:15:18 84° NNE
Cosmos 2195 Rocket 4.4 04:15:41 46° SSE 04:17:40 76° E 04:23:58 10° N
STARLINK-1125 3.6 04:16:10 10° NW 04:20:06 80° WNW 04:20:06 80° WNW
Okean 2 3.3 04:20:37 78° NE 04:20:37 78° NE 04:24:36 10° N
SL-4 R/B 3.9 04:21:10 10° WNW 04:22:09 14° W 04:22:09 14° W
STARLINK-1109 3.7 04:21:08 10° NW 04:24:53 70° WNW 04:24:53 70° WNW
Cosmos 1975 Rocket 2.9 04:26:05 83° ESE 04:26:09 84° E 04:30:36 10° N
Cosmos 1242 Rocket 4.2 04:27:39 27° NE 04:27:39 27° NE 04:29:45 10° NNE
Cosmos 1428 Rocket 4.5 04:25:18 50° SSE 04:26:55 70° E 04:33:11 10° NNE
USA 215 3.8 04:25:16 20° E 04:29:40 53° NNE 04:35:59 10° NW
STARLINK-1091 3.9 04:26:07 10° NW 04:29:39 61° W 04:29:39 61° W
Cosmos 292 Rocket 4.5 04:34:42 40° E 04:34:42 40° E 04:38:38 10° NNE
STARLINK-1072 4.1 04:31:06 10° WNW 04:34:26 53° W 04:34:26 53° W
Meteor 1-21 4.2 04:35:20 58° SE 04:36:04 64° E 04:41:38 10° NNE
NOSS 2-2 (D) 3.8 04:37:08 53° NW 04:37:08 53° NW 04:40:46 10° NNE
SeaSat 1 2.5 04:34:24 10° NNE 04:39:20 73° WNW 04:40:31 51° SW
Cosmos 1271 Rocket 4.2 04:40:47 29° NE 04:40:47 29° NE 04:43:11 10° NNE
STARLINK-1096 4.3 04:36:06 10° WNW 04:39:13 46° W 04:39:13 46° W
Terra 3.1 04:40:27 27° WSW 04:41:20 29° W 04:45:28 10° NW
Cosmos 1766 4.0 04:37:34 10° NNW 04:41:07 47° WNW 04:41:07 47° WNW
BREEZE-M DEB 4.1 04:39:56 10° W 04:42:44 49° N 04:50:38 10° ENE
Cosmos 1733 4.0 04:43:19 10° NNW 04:46:25 47° WNW 04:46:25 47° WNW
Cosmos 1707 4.1 04:49:05 31° NE 04:49:05 31° NE 04:51:35 10° NNE
Cosmos 2026 Rocket 4.0 04:46:18 48° SSW 04:48:08 75° W 04:54:29 10° N
Cosmos 1553 Rocket 4.1 04:42:01 10° N 04:48:19 65° E 04:49:33 53° SE
NOSS 3-4 (A) 4.1 04:52:00 35° E 04:52:00 35° E 04:56:56 10° NE
NOSS 3-4 (C) 4.1 04:52:07 35° E 04:52:07 35° E 04:57:02 10° NE
Cosmos 2263 4.3 04:51:53 54° ESE 04:51:53 54° ESE 04:57:18 10° NNE
ATLAS 3B R/B 4.4 04:47:56 10° NNW 04:53:29 26° NE 04:59:09 10° E
Spot 4 3.7 04:54:18 84° SSW 04:54:27 87° WSW 04:59:20 10° NNW
Cosmos 1656 Rocket 4.3 04:55:34 39° E 04:55:34 39° E 05:00:23 10° NE
CENTAUR R/B 3.8 04:47:51 10° NNW 04:55:40 52° NE 05:01:10 23° ESE
Cosmos 968 Rocket 4.0 04:52:10 10° N 04:57:09 47° ENE 04:57:43 45° E
STARLINK-1101 4.4 04:53:23 10° NW 04:57:25 47° NNE 04:57:31 47° NE
Cosmos 1953 3.8 04:54:07 10° NNE 04:57:00 28° ENE 04:57:00 28° ENE
Lacrosse 5 3.2 04:53:29 10° WNW 04:57:00 27° WSW 04:57:00 27° WSW
Cosmos 1455 Rocket 3.4 04:57:10 10° NNW 05:01:05 58° WNW 05:01:05 58° WNW
Cosmos 1025 Rocket 3.5 05:02:18 54° NE 05:02:18 54° NE 05:05:48 10° NNE
STARLINK-1102 4.3 04:58:21 10° NW 05:02:18 50° NNE 05:02:18 50° NNE
Meteor 2-10 4.4 05:01:00 10° N 05:05:54 48° ENE 05:06:05 47° E
STARLINK-1111 4.3 05:03:19 10° NW 05:07:05 53° NNE 05:07:05 53° NNE
Cosmos 1758 3.9 05:04:07 10° N 05:07:22 56° N 05:07:22 56° N
STARLINK-1073 4.3 05:08:17 10° NW 05:11:51 53° N 05:11:51 53° N
SL-27 R/B 4.0 05:11:32 10° NNW 05:13:45 35° NNW 05:13:45 35° NNW
BREEZE-M DEB (TANK) 4.5 05:12:04 20° W 05:15:11 71° NNW 05:30:37 10° ENE
Cosmos 1486 Rocket 3.8 05:11:21 10° NNW 05:16:41 89° WSW 05:16:50 85° S
STARLINK-1121 4.3 05:13:15 10° NW 05:16:39 52° NNW 05:16:39 52° NNW
Cosmos 2266 Rocket 4.0 05:17:31 57° SE 05:18:14 61° E 05:24:12 10° NNE
ATLAS 2AS CENTAUR R/B 3.0 05:17:31 52° S 05:19:30 68° ESE 05:27:24 10° NE
SL-4 R/B 3.6 05:22:07 31° ENE 05:22:07 31° ENE 05:24:47 10° ENE
Meteor 2-19 Rocket 4.4 05:20:19 59° SE 05:21:04 65° E 05:27:08 10° NNE
STARLINK-1106 4.4 05:18:12 10° NW 05:21:25 50° NNW 05:21:25 50° NNW
Cosmos 1470 3.9 05:19:32 10° NNW 05:22:17 39° NW 05:22:17 39° NW
Meteor 1-16 Rocket 4.4 05:20:12 10° N 05:25:39 55° ENE 05:26:09 53° E
Cosmos 1536 Rocket 3.9 05:26:27 62° NNW 05:26:27 62° NNW 05:30:10 10° N
COSMOS 2455 3.3 05:28:14 46° ESE 05:28:14 46° ESE 05:33:47 10° NE
NOSS 3-2 (A) 4.0 05:20:48 10° NW 05:28:29 75° WSW 05:30:50 51° S
ALOS 2 2.9 05:30:34 62° NW 05:30:34 62° NW 05:34:21 10° NNW
Cosmos 2228 4.5 05:27:21 10° NNE 05:30:44 28° ENE 05:30:44 28° ENE
USA 238 DEB 3.9 05:29:58 10° NW 05:37:09 65° WSW 05:38:30 56° SSW
USA 238 3.8 05:30:04 10° NW 05:37:15 66° WSW 05:38:37 56° SSW
Cosmos 883 Rocket 4.4 05:32:40 10° N 05:38:49 71° E 05:39:45 61° SE
Cosmos 1726 3.5 05:41:16 10° N 05:43:40 38° NNW 05:43:40 38° NNW
SL-8 R/B 4.2 05:43:06 10° WNW 05:46:46 52° WNW 05:46:46 52° WNW
Meteor 2-15 4.3 05:42:07 10° N 05:48:17 83° E 05:49:09 67° SSE
ATLAS CENTAUR R/B 2.5 05:50:01 39° ENE 05:50:01 39° ENE 05:52:48 10° NE
Cosmos 1992 Rocket 4.2 05:48:59 58° W 05:49:22 60° WNW 05:54:33 10° NNE
Cosmos 2369 Rocket 3.5 05:54:58 25° W 05:57:12 34° WNW 06:02:19 10° N
Cosmos 1943 Rocket 4.0 05:56:16 15° W 05:59:22 24° NW 06:03:52 10° N
Cosmos 2315 Rocket 3.8 05:55:02 10° N 06:01:16 85° E 06:02:14 66° SSE
RESURS DK-1 4.0 06:03:12 26° ENE 06:03:12 26° ENE 06:05:35 10° NE
Cosmos 1606 Rocket 3.9 05:59:50 10° N 06:03:31 59° NNE 06:03:31 59° NNE
Meteor 2-15 Rocket 4.3 05:59:43 10° N 06:05:55 90° E 06:06:48 68° S
EO 1 Delta rocket 4.0 06:01:16 10° N 06:07:16 90° SE 06:07:34 81° S
Cosmos 1626 3.9 06:09:01 27° NE 06:09:01 27° NE 06:11:17 10° NNE
Meteor 1-24 Rocket 4.0 06:09:34 48° ESE 06:09:51 48° E 06:15:01 10° NNE
Nadezhda 2 Rocket 4.4 06:11:36 63° SSE 06:12:29 73° E 06:18:35 10° NNE
USA 215 3.4 06:12:35 50° SW 06:12:40 50° SW 06:19:01 10° WNW
Cosmos 1300 4.4 06:10:01 10° NNE 06:12:53 27° ENE 06:12:53 27° ENE
Helios 1A 4.3 06:18:45 32° WNW 06:18:45 32° WNW 06:21:35 10° NNW
SL-14 R/B 4.3 06:23:28 40° NE 06:23:28 40° NE 06:26:17 10° NNE
CZ-4C R/B 4.3 06:25:54 11° ESE 06:26:00 11° ESE 06:27:12 10° E
Cosmos 1777 Rocket 4.1 06:22:44 10° NNW 06:27:58 70° ENE 06:28:36 63° ESE
Helios 1B rocket 2.8 06:24:16 10° N 06:27:46 60° NNW 06:27:46 60° NNW
Meteor 2-5 Rocket 3.5 06:31:42 71° SW 06:32:14 78° W 06:37:51 10° N
Meteor 2-21 4.3 06:33:19 63° SSW 06:34:23 86° W 06:40:36 10° N
NOSS 3-2 (C) 4.4 06:27:28 10° NW 06:34:50 47° WSW 06:36:10 44° SW
Cosmos 1674 4.3 06:36:56 28° NW 06:36:56 28° NW 06:39:25 10° NNW
Cosmos 1892 Rocket 3.9 06:41:10 60° NW 06:41:10 60° NW 06:45:08 10° N
PSLV R/B 3.9 06:36:26 10° N 06:40:47 59° WNW 06:40:47 59° WNW
NOSS 3-4 (A) 4.3 06:39:24 27° W 06:42:07 42° NW 06:48:07 10° NNE
NOSS 3-4 (C) 4.3 06:39:31 27° W 06:42:12 42° NW 06:48:13 10° NNE
ATLAS 3B R/B 2.6 06:38:06 10° NW 06:44:57 84° WSW 06:47:29 43° SSE
Nadezhda 1 Rocket 4.4 06:40:01 10° N 06:46:05 56° E 06:48:24 37° SE
CENTAUR R/B 3.5 06:38:43 10° NW 06:46:33 47° WSW 06:48:18 42° SW
IRAS Rocket 4.2 06:49:52 55° SSE 06:51:08 81° ENE 06:56:43 10° NNW
Cosmos 1726 Rocket 4.4 06:47:12 10° NNW 06:50:32 38° WNW 06:50:32 38° WNW
Meteor 1-29 4.4 06:49:00 10° N 06:51:12 35° NNW 06:51:12 35° NNW
Cosmos 2219 4.1 06:49:54 10° NNW 06:55:21 46° ENE 06:59:00 20° SE
Cosmos 1867 4.2 06:51:57 10° NW 06:56:23 41° W 06:56:23 41° W
Cosmos 2084 3.5 06:57:41 82° NNE 06:57:41 82° NNE 07:01:59 10° NE
SL-4 R/B 3.5 06:57:39 25° WNW 06:59:58 40° NNW 07:04:29 10° NE
MOZ.5/SAFIR/RUBIN 5/SL-8 4.4 06:59:55 40° ESE 07:01:05 51° ENE 07:05:34 10° N
Meteor 2-21 Rocket 4.5 07:00:24 53° SW 07:01:44 68° W 07:07:54 10° N
ATLAS CENTAUR R/B 3.6 07:00:46 10° NNW 07:03:19 29° NE 07:08:12 10° ESE
Spot 1 4.1 07:05:54 77° SSW 07:06:11 82° WSW 07:11:04 10° NNW
Cosmos 2297 Rocket 3.1 07:01:52 10° NNW 07:07:18 46° ENE 07:11:45 15° SE
ATLAS 2AS CENTAUR R/B 4.2 07:04:53 14° W 07:11:04 36° NW 07:18:15 10° NNE
COSMOS 2455 4.1 07:11:21 22° W 07:14:08 33° NW 07:19:32 10° NNE
Cosmos 921 Rocket 3.4 07:14:12 48° WNW 07:14:12 48° WNW 07:18:23 10° N
SJ 16-02 2.6 07:11:24 10° N 07:15:33 37° ENE 07:17:48 22° ESE
Timation 2 Rocket 3.9 07:09:20 10° NNW 07:15:34 64° WSW 07:16:55 50° SSW
SL-16 R/B 2.8 07:13:43 28° SE 07:17:05 66° ENE 07:23:12 10° N
STARLINK-1338 3.9 07:18:05 51° ENE 07:18:05 51° ENE 07:20:51 10° NE
DELTA 2 DEB (DPAF) 4.0 07:16:59 77° S 07:17:18 85° WSW 07:21:48 10° NNW
Cosmos 1745 Rocket 3.9 07:17:18 50° SSW 07:19:01 77° W 07:25:11 10° N
USA 81 4.3 07:17:45 43° SSE 07:19:18 61° E 07:24:30 10° NNE
Cosmos 2058 Rocket 4.2 07:17:12 10° NNW 07:20:40 32° WNW 07:20:40 32° WNW
ADEOS II 3.9 07:17:15 10° NE 07:21:26 23° E 07:24:11 16° SE
STARLINK-1371 3.7 07:22:46 58° NE 07:22:46 58° NE 07:25:43 10° NE
STARLINK-1341 3.7 07:24:42 59° NE 07:24:42 59° NE 07:27:39 10° NE
FALCON 9 DEB 4.3 07:26:22 36° NW 07:26:32 36° NNW 07:29:46 10° NE
STARLINK-1374 3.6 07:27:08 63° NNE 07:27:08 63° NNE 07:30:13 10° NE
ATLAS CENTAUR R/B 3.6 07:26:09 15° WNW 07:27:50 18° NW 07:30:45 10° N
SL-08 ROCKET BODY 4.4 07:26:40 47° SW 07:28:15 66° W 07:34:05 10° N
STARLINK-1339 3.5 07:29:53 67° NNE 07:29:53 67° NNE 07:33:08 10° NE
Cosmos 1703 4.4 07:29:00 32° ESE 07:29:46 35° E 07:33:24 10° NNE
CZ-2D R/B 2.1 07:25:48 10° NNE 07:31:04 75° ESE 07:32:35 47° S
Cosmos 1626 Rocket 3.8 07:31:22 51° W 07:31:32 51° W 07:35:47 10° N
STARLINK-1377 3.4 07:32:18 68° N 07:32:18 68° N 07:35:39 10° NE
Resurs 1-4 Rocket 2.1 07:27:51 10° NNE 07:33:10 80° ESE 07:34:47 46° S
STARLINK-1353 3.4 07:34:43 67° NNW 07:34:43 67° NNW 07:38:10 10° NE
STARLINK-1375 3.4 07:36:46 65° NNW 07:36:46 65° NNW 07:40:14 10° NE
STARLINK-1350 3.5 07:39:36 61° NW 07:39:41 62° NW 07:43:15 10° NE
RESURS DK-1 4.1 07:39:05 21° WNW 07:39:55 22° NW 07:43:13 10° N
Cosmos 1697 Rocket 3.2 07:38:46 33° SSE 07:40:55 50° ESE 07:46:23 10° NE
STARLINK-1254 4.4 07:37:16 10° NW 07:41:19 51° NNE 07:45:22 10° ESE
STARLINK-1352 3.5 07:42:04 57° NW 07:42:15 59° NW 07:45:50 10° NE
Cosmos 1626 4.4 07:43:34 15° WNW 07:43:34 15° WNW 07:45:26 10° NW
Cosmos 2227 Rocket 2.3 07:37:42 10° NNW 07:43:24 76° ENE 07:47:50 17° SSE
GEOS 3 Rocket 3.8 07:42:46 46° SSW 07:43:29 49° WSW 07:48:34 10° NW
STARLINK-1368 3.6 07:44:33 53° NW 07:44:51 56° NNW 07:48:25 10° NE
BREEZE-M DEB (TANK) 3.7 07:44:10 16° NW 07:45:04 19° NNW 07:46:54 10° NE
CZ-4C R/B 3.5 07:44:53 58° SW 07:45:12 60° W 07:49:31 10° NNW
STARLINK-1231 4.3 07:42:14 10° NW 07:46:18 56° NNE 07:50:22 10° ESE
STARLINK-1369 3.7 07:47:03 50° WNW 07:47:27 53° NNW 07:51:00 10° NE
BREEZE-M R/B 3.6 07:46:58 25° W 07:49:18 46° NNW 07:52:17 10° NE
STARLINK-1372 3.8 07:49:34 46° WNW 07:50:05 51° NNW 07:53:37 10° NE
CZ-4B R/B 3.5 07:46:02 10° NNE 07:51:14 85° ESE 07:53:15 39° S
STARLINK-1232 4.1 07:47:12 10° NW 07:51:18 60° NNE 07:55:24 10° ESE
Meteor 2-1 Rocket 4.2 07:46:15 10° NNW 07:51:41 60° W 07:53:30 40° SSW
STARLINK-1378 3.9 07:52:05 42° WNW 07:52:43 48° NNW 07:56:15 10° NE
NPP 3.6 07:48:28 10° NNE 07:53:52 80° WNW 07:55:58 39° SSW
Cosmos 1356 Rocket 4.5 07:50:45 10° NNW 07:54:11 30° W 07:54:11 30° W
STARLINK-1329 4.0 07:53:57 40° WNW 07:54:40 47° NNW 07:58:12 10° NE
STARLINK-1379 4.0 07:54:37 39° WNW 07:55:22 46° NNW 07:58:53 10° NE
Cosmos 1812 Rocket 3.8 07:51:53 10° NNW 07:56:12 49° W 07:56:48 45° WSW
Cosmos 1656 3.8 07:54:05 38° SW 07:56:14 69° WNW 08:01:52 10° NNE
STARLINK-1208 4.0 07:52:09 10° NW 07:56:18 65° NE 08:00:24 10° ESE
FALCON 9 R/B 4.0 07:52:06 23° WSW 07:57:01 57° S 08:22:23 10° ESE
STARLINK-1365 4.1 07:56:11 36° WNW 07:57:05 44° NNW 08:00:35 10° NE
STARLINK-1362 4.1 07:56:33 37° WNW 07:57:24 45° NNW 08:00:54 10° NE
Meteor 2-10 Rocket 3.4 07:53:58 10° NNW 07:59:13 72° W 08:01:18 36° S
STARLINK-1373 4.1 07:58:45 35° WNW 07:59:42 43° NNW 08:03:11 10° NE
STARLINK-1320 4.2 07:59:20 30° NW 07:59:50 33° NNW 08:02:43 10° NE
Cosmos 990 Rocket 3.9 07:54:43 10° NNW 08:00:00 88° WSW 08:03:22 23° SSE
STARLINK-1322 4.2 07:59:39 30° NW 08:00:11 32° NNW 08:03:03 10° NE
STARLINK-1324 4.2 08:00:00 30° NW 08:00:32 32° NNW 08:03:24 10° NE
Alouette 2 Rocket 3.7 07:54:45 10° NNW 08:00:35 83° W 08:02:18 37° S
STARLINK-1294 4.2 08:00:17 30° NW 08:00:50 32° NNW 08:03:43 10° NE
STARLINK-1261 4.2 08:00:38 29° NW 08:01:12 32° NNW 08:04:04 10° NE
STARLINK-1271 3.8 07:57:07 10° NW 08:01:16 71° NE 08:05:24 10° ESE
BREEZE-M DEB (TANK) 3.1 07:58:52 10° NW 08:01:25 31° NNE 08:03:22 10° E
STARLINK-1325 4.2 08:00:58 29° NW 08:01:33 32° NNW 08:04:24 10° NE
STARLINK-1333 4.2 08:01:18 29° NW 08:01:54 32° NNW 08:04:45 10° NE
STARLINK-1390 4.2 08:00:58 33° WNW 08:02:00 42° NNW 08:05:28 10° NE
STARLINK-1334 4.3 08:01:36 29° NW 08:02:13 31° NNW 08:05:04 10° NE
STARLINK-1326 4.3 08:01:56 28° NW 08:02:33 31° NNW 08:05:24 10° NE
STARLINK-1323 4.3 08:02:15 28° NW 08:02:54 31° NNW 08:05:45 10° NE
STARLINK-1349 4.3 08:02:36 28° NW 08:03:15 31° NNW 08:06:06 10° NE
STARLINK-1336 4.3 08:02:55 28° NW 08:03:35 31° NNW 08:06:26 10° NE
STARLINK-1331 4.3 08:03:15 27° NW 08:03:56 31° NNW 08:06:46 10° NE
STARLINK-1344 4.3 08:03:35 27° NW 08:04:16 30° NNW 08:07:07 10° NE
STARLINK-1343 4.3 08:03:53 27° NW 08:04:36 30° NNW 08:07:25 10° NE
Cosmos 1825 Rocket 3.4 08:03:29 46° SSW 08:04:44 79° W 08:09:05 10° N
STARLINK-1346 4.4 08:04:11 27° WNW 08:04:56 30° NNW 08:07:48 10° NE
STARLINK-1328 4.4 08:04:32 27° NW 08:05:16 30° NNW 08:08:05 10° NE
STARLINK-1354 4.4 08:04:51 26° WNW 08:05:37 30° NNW 08:08:25 10° NE
STARLINK-1347 4.4 08:05:11 26° WNW 08:05:57 30° NNW 08:08:46 10° NE
STARLINK-1154 3.7 08:02:05 10° NW 08:06:15 77° NE 08:10:23 10° ESE
STARLINK-1357 4.4 08:05:31 26° WNW 08:06:17 30° NNW 08:09:05 10° NE
Cosmos 2285 Rocket 4.3 08:00:02 10° NNW 08:06:25 69° ENE 08:12:41 10° SSE
STARLINK-1335 4.4 08:05:53 26° WNW 08:06:41 29° NNW 08:09:29 10° NE
STARLINK-1327 4.4 08:06:10 25° WNW 08:06:59 29° NNW 08:09:47 10° NE
STARLINK-1340 4.4 08:06:29 25° WNW 08:07:19 29° NNW 08:10:07 10° NE
STARLINK-1356 4.4 08:06:49 25° WNW 08:07:39 29° NNW 08:10:27 10° NE
STARLINK-1345 4.5 08:07:09 25° WNW 08:08:00 29° NNW 08:10:48 10° NE
STARLINK-1355 4.5 08:07:28 25° WNW 08:08:20 29° NNW 08:11:07 10° NE
STARLINK-1321 4.5 08:07:48 24° WNW 08:08:41 29° NNW 08:11:28 10° NE
Cosmos 1709 Rocket 4.1 08:06:13 32° SW 08:08:54 57° W 08:14:57 10° N
Cosmos 841 Rocket 3.7 08:07:29 29° S 08:10:07 65° ESE 08:15:19 10° NNE
Cosmos-2242 2.8 08:06:03 10° N 08:10:20 82° W 08:12:05 35° S
STARLINK-1197 3.6 08:07:04 10° NW 08:11:13 84° NE 08:15:22 10° SE
CBERS-1 4.0 08:06:42 10° NNE 08:11:51 88° ESE 08:14:26 30° SSW
CZ-4C R/B 2.0 08:11:04 36° SW 08:13:13 88° NW 08:19:02 10° NE
STARLINK-1198 3.5 08:12:04 10° NW 08:16:14 89° SW 08:20:22 10° SE
Cosmos 2369 3.6 08:18:04 30° SSW 08:20:59 83° WNW 08:26:41 10° NNE
STARLINK-1199 3.5 08:17:01 10° NW 08:21:11 82° SW 08:25:19 10° SE
STARLINK 1040 3.9 08:22:42 27° SE 08:22:42 27° SE 08:24:44 10° ENE
STARLINK-1210 3.5 08:22:01 10° NW 08:26:09 75° SW 08:30:17 10° SE
Cosmos 2360 4.2 08:23:05 26° SSW 08:26:23 83° ESE 08:32:06 10° NNE
Cosmos 1763 Rocket 3.9 08:24:30 28° SW 08:26:51 48° WNW 08:31:46 10° N
Lacrosse 4 Rocket 2.0 08:22:42 10° NNW 08:26:59 59° ENE 08:31:07 10° SE
GP-B 3.5 08:23:06 10° N 08:27:22 46° W 08:29:04 31° SW
IRS-1D 3.6 08:22:49 10° N 08:28:07 68° WNW 08:31:05 26° SSW
Cosmos 1328 4.3 08:28:26 33° WSW 08:29:39 44° WNW 08:33:30 10° N
Cosmos 1455 3.1 08:26:46 10° NNW 08:30:02 29° W 08:30:25 28° WSW
IRS-1C 4.1 08:25:20 10° NNE 08:30:42 83° ESE 08:34:25 21° S
STARLINK-1219 3.5 08:26:59 10° WNW 08:31:07 69° SW 08:35:13 10° SE
Meteor 1-28 Rocket 4.3 08:28:18 10° SE 08:31:54 44° ENE 08:35:30 10° N
Cosmos 1980 Rocket 2.3 08:30:34 22° SSW 08:34:14 73° ESE 08:39:53 10° NNE
ATLAS 3B R/B 4.2 08:30:57 10° WNW 08:34:40 15° WSW 08:34:40 15° WSW
STARLINK-1211 3.5 08:32:00 10° WNW 08:36:06 62° SW 08:40:11 10° SE
Cosmos 2219 4.2 08:34:37 10° NW 08:39:11 26° WSW 08:40:51 22° SW
SL-4 R/B 4.5 08:36:40 10° WNW 08:40:38 25° N 08:44:28 10° NE
STARLINK-1245 3.6 08:36:59 10° WNW 08:41:04 57° SW 08:45:06 10° SE
H-2A R/B 3.0 08:39:58 10° SSE 08:44:08 50° ENE 08:48:25 10° N
STARLINK-1233 3.7 08:41:59 10° WNW 08:46:01 51° SW 08:50:01 10° SSE
STARLINK-1204 3.8 08:47:00 10° WNW 08:50:59 46° SW 08:54:57 10° SSE
Cosmos 2297 Rocket 3.2 08:46:28 10° NW 08:51:02 26° WSW 08:53:28 19° SW
Cosmos 2074 Rocket 4.1 08:46:23 17° SSW 08:51:20 68° W 08:57:38 10° N
SJ 16-02 2.8 08:50:39 10° NW 08:53:50 20° W 08:54:44 18° WSW
ARIANE 5 R/B 2.4 08:48:53 10° NNE 08:53:57 82° WNW 08:58:05 15° SSW
STARLINK-1238 3.9 08:52:02 10° WNW 08:55:58 42° SW 08:59:52 10° SSE
Cosmos 2082 3.9 08:51:39 10° NW 08:57:03 47° WSW 09:02:22 10° S
STARLINK-33 4.2 08:56:40 18° S 08:58:23 31° SE 09:01:15 10° ENE
STARLINK-1201 4.0 08:57:04 10° WNW 09:00:55 38° SW 09:04:45 10° SSE
SL-16 R/B 3.9 08:58:48 16° WSW 09:01:11 19° W 09:05:30 10° NW
ADEOS II 2.6 08:56:19 10° N 09:01:18 44° WNW 09:05:07 16° SW
Cosmos 2278 4.0 08:57:31 18° SW 09:01:38 57° WNW 09:07:14 10° NNE
STARLINK-1240 4.4 08:59:12 10° NW 09:03:17 54° NNE 09:07:20 10° ESE
Cosmos 2263 Rocket 3.3 08:57:55 10° NNW 09:03:20 47° ENE 09:08:41 10° SE
Cosmos 1869 3.6 09:00:00 10° N 09:03:52 67° E 09:07:42 10° SSE
Spot 4 Rocket 4.0 08:59:29 10° NNE 09:04:40 89° W 09:09:45 10° SSW
Cosmos 2184 Rocket 4.2 09:00:25 15° SSW 09:05:29 55° W 09:11:32 10° N
STARLINK-1206 4.2 09:02:04 10° WNW 09:05:51 35° SW 09:09:37 10° SSE
Cosmos 2322 Rocket 3.7 09:01:37 10° SSE 09:06:32 32° ESE 09:11:27 10° NE
Cosmos 1400 Rocket 3.4 09:02:54 10° NNW 09:06:46 40° W 09:10:10 13° SSW
Cosmos 1937 Rocket 4.3 09:02:12 10° NW 09:06:49 32° W 09:11:12 11° SSW
STARLINK-66 3.8 09:04:58 18° SSW 09:06:58 39° SE 09:09:59 10° ENE
STARLINK-1216 4.3 09:04:09 10° NW 09:08:16 58° NNE 09:12:20 10° ESE
Cosmos 2298 Rocket 4.0 09:05:01 10° NNW 09:10:20 83° WSW 09:15:38 10° SSE
CZ-2D R/B 4.0 09:07:31 10° NNW 09:10:28 15° WNW 09:13:23 10° W
STARLINK-1205 4.3 09:07:07 10° WNW 09:10:49 32° SW 09:14:29 10° SSE
Cosmos 1842 Rocket 3.6 09:06:34 10° NNW 09:11:03 70° W 09:15:28 10° S
Resurs 1-4 Rocket 4.1 09:09:29 10° NNW 09:12:18 15° WNW 09:15:07 10° W
Cosmos 1408 4.3 09:09:22 10° SSE 09:12:42 33° E 09:16:03 10° NNE
STARLINK-43 3.4 09:10:03 17° WSW 09:12:49 70° NW 09:16:29 10° NE
In-Cosmos 22 Rocket 4.5 09:07:16 10° S 09:12:58 72° E 09:18:34 10° NNE
STARLINK-1237 4.1 09:09:07 10° NW 09:13:15 63° NE 09:17:22 10° ESE
STARLINK-1218 4.4 09:12:09 10° WNW 09:15:45 29° SW 09:19:19 10° SSE
Timation 1 Rocket 4.4 09:09:49 10° NNW 09:15:50 88° ENE 09:21:48 10° SSE
STARLINK-1283 4.3 09:13:00 14° SSW 09:15:57 39° SE 09:19:30 10° ENE
STARLINK-75 3.7 09:15:39 15° SSW 09:18:05 44° SE 09:21:10 10° ENE
STARLINK-1202 4.0 09:14:07 10° NW 09:18:15 69° NE 09:22:23 10° ESE
CZ-2C R/B 2.6 09:17:50 10° NNE 09:21:33 88° WNW 09:25:18 10° SSW
IDEFIX/ARIANE 42P 2.6 09:17:27 10° NNE 09:22:46 87° WNW 09:28:01 10° SSW
Landsat 5 3.6 09:18:42 10° S 09:23:12 82° WSW 09:27:44 10° NNW
SL-08 R/B 4.1 09:20:29 10° SSW 09:24:39 31° W 09:28:48 10° NW
Cosmos 1697 Rocket 4.1 09:20:30 10° WSW 09:25:08 26° NW 09:29:52 10° N
IRIDIUM 104 4.4 09:20:44 10° SSW 09:25:53 61° W 09:31:04 10° N
Cosmos 1076 Rocket 3.5 09:22:20 10° S 09:26:41 88° W 09:31:05 10° N
Cosmos 2227 Rocket 3.8 09:23:41 10° WNW 09:26:43 15° W 09:29:33 10° SW
STARLINK-22 3.8 09:25:02 12° SSW 09:27:50 41° SE 09:30:53 10° ENE
STARLINK-1246 3.7 09:24:03 10° NW 09:28:12 81° NE 09:32:21 10° SE
Cosmos 1315 Rocket 2.8 09:25:56 10° NNW 09:29:49 62° W 09:33:41 10° S
CZ-2D R/B 4.0 09:25:59 10° N 09:29:57 45° WNW 09:33:59 10° SW
Cosmos 1125 Rocket 3.6 09:24:56 10° NNW 09:30:10 83° ENE 09:35:22 10° SSE
STARLINK-1224 3.6 09:29:01 10° NW 09:33:11 88° NE 09:37:19 10° SE
ERS-2 3.1 09:30:31 10° SSW 09:33:42 28° W 09:36:55 10° NW
SL-16 R/B 2.6 09:29:13 10° SSW 09:34:49 67° ESE 09:40:28 10° NNE
NOSS 2-1 (E) 3.8 09:32:18 10° SSW 09:35:34 44° ESE 09:38:55 10° NE
CZ-4C R/B 3.5 09:33:43 10° S 09:37:09 43° W 09:40:38 10° NNW
SL-8 Rocket 4.4 09:31:14 10° S 09:37:29 71° E 09:43:46 10° NNE
Cosmos 2154 Rocket 4.4 09:31:55 10° SSW 09:37:57 48° WNW 09:44:00 10° N
STARLINK-1225 3.6 09:34:00 10° NW 09:38:09 85° SW 09:42:17 10° SE
SL-24 DEB 4.4 09:34:27 10° N 09:39:00 59° W 09:43:29 10° SSW
Cosmos 1825 3.0 09:39:21 10° S 09:43:00 52° E 09:46:41 10° NNE
STARLINK-1230 3.6 09:38:59 10° NW 09:43:08 78° SW 09:47:15 10° SE
ATLAS CENTAUR R/B 4.2 09:42:21 10° W 09:46:11 22° SW 09:53:17 10° S
STARLINK-1243 3.6 09:43:58 10° NW 09:48:06 71° SW 09:52:13 10° SE
STARLINK-42 3.0 09:46:25 10° SW 09:49:37 81° NW 09:52:50 10° NE
Cosmos 2221 3.4 09:46:01 10° NNW 09:49:50 31° W 09:53:40 10° SSW
